Weather History for Taunton, MA

Change the Weather History Date:

Saturday, January 19, 2013

  Actual Average Record
Temperature  
Mean Temperature 34 °F -  
Max Temperature 48 °F 35 °F 60 °F (1951)
Min Temperature 21 °F 15 °F -13 °F (1957)
Degree Days  
Heating Degree Days 30    
Moisture  
Dew Point 26 °F    
Average Humidity 57    
Maximum Humidity 65    
Minimum Humidity 48    
Precipitation  
Precipitation 0.00 in - - ()
Sea Level Pressure  
Sea Level Pressure 30.15 in    
Wind  
Wind Speed 10 mph (SSW)    
Max Wind Speed 21 mph    
Max Gust Speed 39 mph    
Visibility 10 miles    
Events      
Averages and records for this station are not official NWS values.
T = Trace of Precipitation, MM = Missing Value Source: NWS Daily Summary

Daily Weather History Graph

Daily Weather History Graph

Search for Another Location

Airport:

Trip Planner

Search our weather history database for the weather conditions in past years. The results will help you decide how hot, cold, wet, or windy it might be!

Date:

Astronomy

Jan. 19, 2013 Rise Set
Actual Time 7:07 AM EST 4:43 PM EST
Civil Twilight 6:36 AM EST 5:13 PM EST
Nautical Twilight 6:02 AM EST 5:47 PM EST
Astronomical Twilight 5:29 AM EST 6:21 PM EST
Moon 11:08 AM EST (1/19) 12:36 AM EST (1/19)
Length of Visible Light 10h 37m
Length of Day
9h 36m
First Quarter, 57% of the Moon is Illuminated
Jan 19
First Quarter
Jan 26
Full
Feb 3
Last Quarter
Feb 10
New
Feb 17
First Quarter

Hourly Weather History & Observations

Time (EST) Temp. Windchill Dew Point Humidity Pressure Visibility Wind Dir Wind Speed Gust Speed Precip Events Conditions
12:52 AM 21.9 °F 14.5 °F 9.0 °F 58% 30.38 in 10.0 mi SSE 5.8 mph - N/A   Partly Cloudy
1:52 AM 25.0 °F 20.7 °F 12.0 °F 58% 30.38 in 10.0 mi South 3.5 mph - N/A   Overcast
2:52 AM 26.1 °F 20.5 °F 14.0 °F 60% 30.35 in 10.0 mi SE 4.6 mph - N/A   Overcast
3:52 AM 30.9 °F 23.5 °F 18.0 °F 59% 30.32 in 10.0 mi South 8.1 mph - N/A   Clear
4:52 AM 33.1 °F 24.9 °F 21.0 °F 61% 30.29 in 10.0 mi SSW 10.4 mph 17.3 mph N/A   Overcast
5:52 AM 36.0 °F 29.0 °F 25.0 °F 64% 30.26 in 10.0 mi SW 9.2 mph - N/A   Overcast
6:52 AM 39.0 °F 31.4 °F 26.1 °F 60% 30.25 in 10.0 mi SW 12.7 mph 24.2 mph N/A   Partly Cloudy
7:52 AM 39.0 °F 34.0 °F 26.1 °F 60% 30.23 in 10.0 mi Variable 6.9 mph 23.0 mph N/A   Partly Cloudy
8:52 AM 42.1 °F 34.2 °F 28.0 °F 58% 30.24 in 10.0 mi SW 16.1 mph 28.8 mph N/A   Clear
9:52 AM 44.1 °F 35.9 °F 28.0 °F 53% 30.23 in 10.0 mi SW 19.6 mph 39.1 mph N/A   Clear
10:52 AM 46.0 °F 39.0 °F 28.0 °F 50% 30.19 in 10.0 mi SSW 17.3 mph 26.5 mph N/A   Clear
11:52 AM 46.9 °F - 28.0 °F 48% 30.13 in 10.0 mi SW 20.7 mph 33.4 mph N/A   Clear
12:52 PM 46.9 °F - 28.0 °F 48% 30.09 in 10.0 mi SSW 15.0 mph 26.5 mph N/A   Clear
1:52 PM 46.9 °F - 28.0 °F 48% 30.06 in 10.0 mi SSW 17.3 mph 31.1 mph N/A   Partly Cloudy
2:52 PM 48.0 °F - 28.9 °F 48% 30.05 in 10.0 mi SSW 19.6 mph 26.5 mph N/A   Mostly Cloudy
3:52 PM 46.9 °F - 28.9 °F 50% 30.05 in 10.0 mi SSW 10.4 mph 21.9 mph N/A   Clear
4:52 PM 45.0 °F 38.9 °F 28.9 °F 53% 30.04 in 10.0 mi SSW 12.7 mph 17.3 mph N/A   Clear
5:52 PM 43.0 °F 38.2 °F 30.0 °F 60% 30.04 in 10.0 mi SSW 8.1 mph - N/A   Clear
6:52 PM 43.0 °F 38.2 °F 30.9 °F 62% 30.04 in 10.0 mi SSW 8.1 mph - N/A   Clear
7:52 PM 43.0 °F 38.2 °F 32.0 °F 65% 30.03 in 10.0 mi SSW 8.1 mph - N/A   Scattered Clouds
8:52 PM 43.0 °F 38.8 °F 32.0 °F 65% 30.01 in 10.0 mi SSW 6.9 mph - N/A   Clear
9:52 PM 44.1 °F 39.5 °F 32.0 °F 63% 29.99 in 10.0 mi SSW 8.1 mph - N/A   Clear
10:52 PM 45.0 °F 40.6 °F 33.1 °F 63% 29.96 in 10.0 mi SSW 8.1 mph 18.4 mph N/A   Clear
11:52 PM 46.0 °F 41.4 °F 34.0 °F 63% 29.93 in 10.0 mi SSW 9.2 mph 17.3 mph N/A   Clear